Weather History for Fryeburg, ME

Change the Weather History Date:

Tuesday, August 6, 2013

  Actual Average Record
Temperature  
Mean Temperature 60 °F -  
Max Temperature 79 °F 80 °F 95 °F (2001)
Min Temperature 43 °F 54 °F 41 °F (2004)
Degree Days  
Heating Degree Days 4    
Growing Degree Days 10 (Base 50)    
Moisture  
Dew Point 50 °F    
Average Humidity 70    
Maximum Humidity 96    
Minimum Humidity 35    
Precipitation  
Precipitation 0.00 in - - ()
Sea Level Pressure  
Sea Level Pressure 30.12 in    
Wind  
Wind Speed 1 mph (SSE)    
Max Wind Speed 7 mph    
Max Gust Speed -    
Visibility 10 miles    
Events      
Averages and records for this station are not official NWS values.
T = Trace of Precipitation, MM = Missing Value Source: NWS Daily Summary

Daily Weather History Graph

Daily Weather History Graph

Search for Another Location

Airport:

Trip Planner

Search our weather history database for the weather conditions in past years. The results will help you decide how hot, cold, wet, or windy it might be!

Date:

Astronomy

Aug. 06, 2013 Rise Set
Actual Time 5:37 AM EDT 8:00 PM EDT
Civil Twilight 5:05 AM EDT 8:33 PM EDT
Nautical Twilight 4:25 AM EDT 9:13 PM EDT
Astronomical Twilight 3:39 AM EDT 9:57 PM EDT
Moon 5:28 AM EDT (8/6) 7:30 PM EDT (8/6)
Length of Visible Light 15h 27m
Length of Day
14h 23m
Waning Crescent, 0% of the Moon is Illuminated
Aug 6
Waning Crescent
Aug 6
New
Aug 14
First Quarter
Aug 20
Full
Aug 28
Last Quarter

Hourly Weather History & Observations

Time (EDT) Temp. Dew Point Humidity Pressure Visibility Wind Dir Wind Speed Gust Speed Precip Events Conditions
12:54 AM 48.0 °F 43.0 °F 83% 30.06 in 10.0 mi Calm Calm - N/A   Clear
1:54 AM 46.0 °F 43.0 °F 89% 30.06 in 10.0 mi Calm Calm - N/A   Clear
2:54 AM 45.0 °F 43.0 °F 93% 30.06 in 10.0 mi Calm Calm - N/A   Clear
3:54 AM 44.1 °F 43.0 °F 96% 30.07 in 3.0 mi Calm Calm - N/A   Partly Cloudy
4:54 AM 43.0 °F 41.0 °F 93% 30.08 in 10.0 mi Calm Calm - N/A   Clear
5:54 AM 44.1 °F 43.0 °F 96% 30.09 in 10.0 mi Calm Calm - N/A   Partly Cloudy
6:54 AM 52.0 °F 48.9 °F 89% 30.10 in 10.0 mi Calm Calm - N/A   Clear
7:54 AM 57.9 °F 51.1 °F 78% 30.12 in 10.0 mi Calm Calm - N/A   Clear
8:54 AM 64.9 °F 51.1 °F 61% 30.13 in 10.0 mi SW 3.5 mph - N/A   Clear
9:54 AM 69.1 °F 52.0 °F 54% 30.14 in 10.0 mi Calm Calm - N/A   Clear
10:54 AM 72.0 °F 54.0 °F 53% 30.14 in 10.0 mi SE 3.5 mph - N/A   Clear
11:54 AM 73.0 °F 46.9 °F 39% 30.13 in 10.0 mi SSW 4.6 mph - N/A   Clear
12:54 PM 75.0 °F 46.0 °F 36% 30.13 in 10.0 mi Calm Calm - N/A   Clear
1:54 PM 75.9 °F 48.0 °F 37% 30.13 in 10.0 mi SE 6.9 mph - N/A   Clear
2:54 PM 78.1 °F 48.0 °F 35% 30.12 in 10.0 mi SE 4.6 mph - N/A   Clear
3:54 PM 77.0 °F 51.1 °F 40% 30.12 in 10.0 mi Variable 3.5 mph - N/A   Clear
4:54 PM 75.9 °F 51.1 °F 42% 30.12 in 10.0 mi South 5.8 mph - N/A   Clear
5:54 PM 71.1 °F 54.0 °F 55% 30.13 in 10.0 mi Calm Calm - N/A   Clear
6:54 PM 70.0 °F 55.0 °F 59% 30.14 in 10.0 mi Calm Calm - N/A   Clear
7:54 PM 66.0 °F 59.0 °F 78% 30.15 in 10.0 mi Calm Calm - N/A   Clear
8:54 PM 61.0 °F 57.9 °F 90% 30.16 in 10.0 mi Calm Calm - N/A   Clear
9:54 PM 57.0 °F 55.0 °F 93% 30.16 in 10.0 mi Calm Calm - N/A   Clear
10:54 PM 55.0 °F 53.1 °F 93% 30.16 in 10.0 mi Calm Calm - N/A   Clear
11:54 PM 53.1 °F 52.0 °F 96% 30.17 in 10.0 mi Calm Calm - N/A   Clear